Trieste, Italy

10:44 PM CEST on June 22, 2017 (GMT +0200)
Trieste

Weather History for LIVT - October, 2012

Change the Weather History Date:

Saturday, October 27, 2012

  Actual Average Record
Temperature  
Mean Temperature 64 °F -  
Max Temperature 67 °F 55 °F 70 °F (2015)
Min Temperature 60 °F 47 °F 44 °F (1997)
Degree Days  
Heating Degree Days 2    
Growing Degree Days 14 (Base 50)    
Moisture  
Dew Point 58 °F    
Average Humidity 83    
Maximum Humidity 88    
Minimum Humidity 73    
Precipitation  
Precipitation 0.24 in 0.15 in - ()
Sea Level Pressure  
Sea Level Pressure 29.22 in    
Wind  
Wind Speed 4 mph ()    
Max Wind Speed 12 mph    
Max Gust Speed 25 mph    
Visibility 6.3 miles    
Events Rain , Thunderstorm    
Averages and records for this station are not official NWS values.
T = Trace of Precipitation, MM = Missing Value Source: Averaged Metar Reports

Daily Weather History Graph

Daily Weather History Graph

Search for Another Location

Airport or City:

Trip Planner

Search our weather history database for the weather conditions in past years. The results will help you decide how hot, cold, wet, or windy it might be!

Date:

Astronomy

Oct. 27, 2012 Rise Set
Actual Time 7:38 AM CEST 5:58 PM CEST
Civil Twilight 7:07 AM CEST 6:29 PM CEST
Nautical Twilight 6:32 AM CEST 7:04 PM CEST
Astronomical Twilight 5:58 AM CEST 7:38 PM CEST
Moon 4:40 PM CEST (10/27) 5:11 AM CEST (10/27)
Length of Visible Light 11h 22m
Length of Day
10h 20m
Waxing Gibbous, 95% of the Moon is Illuminated
Oct 27
Waxing Gibbous
Oct 29
Full
Nov 7
Last Quarter
Nov 13
New
Nov 20
First Quarter

Hourly Weather History & Observations

Time (CEST) Temp. Dew Point Humidity Pressure Visibility Wind Dir Wind Speed Gust Speed Precip Events Conditions
12:55 AM 62.6 °F 59.0 °F 88% 29.44 in 6.2 mi West 2.3 mph - N/A Rain Rain
1:55 AM 62.6 °F 59.0 °F 88% 29.42 in 4.3 mi SE 1.2 mph - N/A Rain Rain
2:00 AM 63 °F 59 °F 84% 29.42 in 2 mi SE 1.2 mph - - Rain Rain
2:55 AM 62.6 °F 59.0 °F 88% 29.39 in 4.3 mi SE 4.6 mph - N/A Rain Rain
4:55 AM 60.8 °F 57.2 °F 88% 29.33 in 6.2 mi East 2.3 mph - N/A   Light Drizzle
5:55 AM 60.8 °F 57.2 °F 88% 29.27 in 6.2 mi ESE 3.5 mph - N/A Rain Light Rain
6:55 AM 60.8 °F 57.2 °F 88% 29.24 in 6.2 mi East 2.3 mph - N/A Rain Light Rain
7:55 AM 62.6 °F 57.2 °F 82% 29.21 in 6.2 mi ESE 3.5 mph - N/A Rain Light Rain
8:00 AM 63 °F 58 °F 79% 29.23 in 6 mi ESE 3.5 mph - - Rain Light Rain
9:55 AM 64.4 °F 59.0 °F 83% 29.21 in 6.2 mi South 6.9 mph - N/A   Mostly Cloudy
10:55 AM 66.2 °F 59.0 °F 78% 29.18 in 6.2 mi South 11.5 mph 25.3 mph N/A Rain Light Rain
11:55 AM 66.2 °F 60.8 °F 83% 29.18 in 6.2 mi South 9.2 mph 21.9 mph N/A Rain Light Rain
12:55 PM 66.2 °F 60.8 °F 83% 29.18 in 6.2 mi South 5.8 mph - N/A Rain Light Rain
1:55 PM 64.4 °F 60.8 °F 88% 29.18 in 6.2 mi South 5.8 mph - N/A Rain Light Rain
2:00 PM 64 °F 60 °F 84% 29.19 in 12 mi South 5.8 mph - - Rain Light Rain
3:55 PM 62.6 °F 59.0 °F 88% 29.12 in 6.2 mi East 2.3 mph - N/A Rain , Thunderstorm Light Thunderstorms and Rain
4:55 PM 62.6 °F 59.0 °F 88% 29.12 in 6.2 mi ESE 2.3 mph - N/A   Mostly Cloudy
5:55 PM 62.6 °F 57.2 °F 82% 29.09 in 6.2 mi SSE 8.1 mph 20.7 mph N/A   Mostly Cloudy
6:55 PM 62.6 °F 57.2 °F 82% 29.12 in 6.2 mi SSE 5.8 mph - N/A   Mostly Cloudy
7:55 PM 62.6 °F 57.2 °F 82% 29.12 in 6.2 mi SE 2.3 mph - N/A   Partly Cloudy
8:00 PM 63 °F 57 °F 76% 29.13 in 12 mi SE 2.3 mph - -   Partly Cloudy
8:55 PM 64.4 °F 57.2 °F 77% 29.12 in 6.2 mi SE 5.8 mph - N/A   Partly Cloudy
9:55 PM 66.2 °F 57.2 °F 73% 29.15 in 6.2 mi ESE 9.2 mph 20.7 mph N/A   Scattered Clouds
10:55 PM 66.2 °F 59.0 °F 78% 29.18 in 6.2 mi SSW 5.8 mph - N/A   Scattered Clouds
11:55 PM 60.8 °F 57.2 °F 88% 29.18 in 6.2 mi East 3.5 mph - N/A   Partly Cloudy